THOR ABLESTAR DEB, 403

Orbit data source: Space-Track

THOR ABLESTAR DEB, 403 is space debris in LEO originally from a launch on Thu, 29 Jun 1961 UTC launched from the Air Force Eastern Test Range (AFETR). Debris objects in space refer to the collection of defunct objects orbiting the Earth. Examples of debris include non-operational satellites, rocket bodies, and fragments generated from explosions, collisions, or faulty payload assembly.

Loading next visibility...
Identifier
403, 1961-015EC
Orbit
LEO
Country
Flag of USUS
Related business
Manufacturer
Unknown
Mission
Spacecraft
Bus & Motor
Unknown
Mass
Unknown
Launch date (UTC)
1961-06-29 (65 years ago)
Launch vehicle
Unknown
Launch site
Air Force Eastern Test Range (AFETR)
Object type
Payload
Rocket body
Debris
Shape & HBR
Unknown shape, 0.2 m
Radar Cross Section
Small (<0.1 m²)

Expand to show TLE details & history
Last TLE update: 11 hours ago

TLE from 11 hours ago
0 THOR ABLESTAR DEB
1   403U 61015EC  26012.80081671 -.00000009  00000-0  61882-4 0  9991
2   403  66.8425 298.9012 0027685 282.5051 109.4647 13.81204950249696
Epoch: 2026-01-12T19:13Z
TLE epoch observation values (Epoch: 2026-01-12T19:13:10.563Z)
Latitude
29.46053°
Longitude
-87.77801°
Altitude
969.268 km
Speed
7.367 km/s
True Right ascension
20h 51m 13s
True Declination
29° 19' 04"
Sunlit
Object was in daylight at epoch
Visualization orbit readout
Latitude
Unknown
Longitude
Unknown
Altitude
Unknown
Speed
Unknown
Apparent Right ascension
Unknown
Apparent Declination
Unknown
Sunlit
N/A
Visualization observer readout
Local Sidereal Time
06:15:56
Azimuth
Unknown
Elevation
Unknown
Doppler factor
Unknown
Orbital elements
Apogee altitude
978.322 km
Perigee altitude
937.702 km
Semi-major axis
7,336.149 km
Eccentricity
0.00277
Inclination
66.8425°
RAAN
298.9012°
Arg. of periapsis
282.5051°
True anomaly
109.76347°
Mean anomaly
109.4647°
Eccentric anomaly
109.61412°
Mean motion
3.45415 °/min
Orbital period
104.22 mins
BSTAR
0.000061882
Loading maneuver chart data...
Computing Atmospheric mass density...

Documentation

Showing up to 5 results
|